Dewpoint
45 43 44 44 45 44 42 39 36 31 31 32 33 33 31 33 36 34 32 36 36 35 33 33 31 29 28 28 30 31 32 33 33 33 33 33 33 33
44 43 43 44 43 44 41 39 37 35 32 33 32 31 31 25 32 30 30 35 35 36 36 35 34 29 27 28 28 28 30 31 32 31 31 32 32 34
43 42 42 43 42 42 41 38 36 35 33 33 31 30 31 32 28 32 32 29 30 35 36 36 35 31 29 29 27 28 29 30 30 30 30 31 31 33
42 42 42 42 41 41 40 38 36 35 34 32 32 31 31 31 30 29 29 23 25 30 34 34 34 32 32 31 29 29 29 29 30 30 29 30 30 30
42 42 41 41 41 41 40 39 37 35 35 33 32 33 33 31 28 29 28 28 26 31 33 33 33 33 32 32 31 31 30 30 30 30 29 29 29 30
42 42 41 41 40 40 39 39 37 36 36 34 33 32 31 30 29 26 25 27 25 20 26 25 30 31 33 34 32 32 33 32 30 30 31 31 31 30
42 42 42 41 40 39 39 37 35 33 33 33 32 32 31 29 26 27 26 25 25 25 21 21 22 23 23 27 29 30 31 33 33 29 29 29 31 31
40 40 40 40 40 39 38 37 33 31 32 32 32 31 30 31 29 28 28 24 24 25 19 20 22 21 22 24 28 30 29 29 28 28 28 28 30 31
39 38 34 30 33 33 33 34 34 34 32 33 31 31 31 31 31 29 28 27 25 24 20 19 22 22 24 20 28 29 29 31 31 31 30 31 32 31
33 33 33 33 33 33 32 31 31 31 33 33 32 32 31 31 29 29 29 26 23 21 21 20 22 23 24 24 28 29 29 29 30 31 31 31 31 31
32 32 33 31 33 34 32 31 31 30 31 34 35 35 34 33 31 28 26 25 21 22 22 22 21 23 22 22 22 28 28 30 30 30 30 30 30 31
29 28 30 31 31 30 29 29 29 31 33 33 32 32 34 29 29 27 26 25 27 22 23 22 21 21 19 21 22 23 25 28 29 29 30 30 31 29
24 24 24 27 27 27 27 24 23 25 29 31 32 33 33 31 29 27 26 26 25 23 23 24 22 21 20 20 21 22 24 25 26 27 30 32 32 32
22 23 24 25 26 27 26 27 27 28 30 28 28 29 32 33 34 32 28 26 25 24 25 25 24 23 21 19 18 21 22 24 25 26 27 31 33 32
23 23 23 23 25 26 27 28 26 25 24 25 26 26 28 31 33 33 33 31 27 25 23 25 26 23 22 20 20 20 21 23 25 27 26 28 28 32
21 20 21 23 24 23 24 24 25 27 28 29 28 29 30 32 33 33 31 29 29 29 27 26 24 24 23 22 21 20 22 20 24 28 27 25 31 32
19 20 21 21 20 19 19 20 21 22 23 24 26 29 30 32 32 32 31 30 27 25 25 26 26 26 25 23 21 22 22 23 28 22 25 25 28 32
19 18 17 17 17 17 17 17 18 19 19 21 21 27 31 31 31 31 31 29 26 25 25 24 24 25 24 24 25 22 23 27 23 27 26 25 25 26
16 17 15 16 16 16 15 16 16 18 17 18 19 25 30 31 30 30 29 28 27 26 25 25 24 22 19 15 22 27 21 24 26 25 27 27 24 25
16 15 14 14 14 14 14 15 15 16 16 16 18 27 31 29 29 29 29 26 27 26 25 22 22 23 19 15 13 17 27 19 22 26 25 22 25 29
15 13 13 13 13 14 13 14 15 14 15 16 19 24 30 29 27 25 28 27 27 27 24 21 22 22 22 20 10 13 19 29 27 25 22 19 20 23
13 13 13 12 12 12 12 13 12 12 13 14 16 17 18 28 25 22 25 28 27 27 26 24 20 21 20 20 16 12 20 25 29 30 28 25 18 14
11 13 12 11 11 11 10 9 11 9 11 13 14 14 15 18 27 25 28 28 27 25 25 22 22 21 20 19 17 16 15 15 23 21 21 28 27 27
Lifted_Index
6 6 7 8 8 8 8 8 8 8 8 9 9 9 10 11 11 12 12 12 12 11 11 11 10 10 10 9 9 9 8 8 7 7 7 7 7 6
6 7 8 8 8 9 9 9 9 9 9 9 9 10 10 11 11 11 11 11 11 11 10 10 9 9 9 9 9 9 8 8 8 7 7 7 7 6
7 8 8 9 9 9 9 9 9 9 9 9 10 10 10 10 10 10 10 10 9 9 9 8 8 8 8 8 9 9 8 8 8 7 7 7 7 7
9 9 9 9 9 9 9 9 9 9 9 9 10 10 10 9 9 9 9 9 8 8 7 7 7 7 8 8 8 8 8 7 7 7 7 7 7 7
9 9 9 9 9 9 9 9 9 9 9 9 9 9 9 8 8 8 8 7 7 7 6 6 6 7 7 7 7 7 7 6 7 7 7 8 8 8
9 10 10 10 9 9 9 9 9 9 9 9 9 9 8 7 7 7 6 6 5 5 5 6 6 6 6 6 6 6 6 6 6 6 7 7 8 8
10 10 10 10 9 9 9 9 9 9 9 9 9 8 7 6 5 5 4 4 4 4 5 5 6 6 6 6 6 6 6 5 6 6 7 7 8 8
11 11 11 10 10 10 9 10 10 10 10 9 8 7 6 5 4 4 3 3 4 4 5 5 6 6 6 6 6 6 6 6 6 6 7 7 7 8
12 12 11 11 11 10 11 11 10 10 10 9 8 7 6 5 4 3 3 3 4 4 5 5 6 6 6 6 6 6 6 6 6 7 7 7 8 8
13 13 12 12 12 11 11 11 11 11 10 9 8 7 6 5 4 4 3 4 4 4 5 5 6 6 6 5 5 5 6 6 6 7 7 7 8 8
15 14 14 14 13 13 13 12 12 11 10 9 8 6 5 5 4 4 3 3 4 4 5 5 6 6 5 5 6 6 6 6 6 7 7 7 7 8
16 16 16 16 16 16 15 14 14 12 11 9 8 6 5 5 4 4 3 3 3 4 4 5 6 6 6 5 6 6 6 6 7 7 7 7 7 7
17 18 18 18 18 18 17 16 15 14 12 10 8 7 6 5 4 3 3 3 3 3 4 5 6 6 6 6 6 7 7 7 7 7 7 6 6 6
19 19 19 19 19 18 17 16 14 13 12 10 9 8 6 5 4 3 3 3 3 4 4 5 5 5 6 6 6 7 7 7 7 7 6 6 6 5
20 20 20 19 18 17 16 14 13 11 10 10 9 8 7 5 4 3 3 3 3 4 4 5 5 5 6 6 6 7 7 7 7 6 6 6 5 5
20 20 19 19 18 17 16 14 12 11 10 9 8 7 6 5 4 3 3 3 3 4 4 4 5 5 6 6 6 7 7 7 6 6 6 5 5 4
19 19 19 18 17 17 16 14 13 11 10 9 8 7 5 4 3 3 2 2 3 3 3 4 5 5 5 6 6 6 6 6 6 6 6 5 4 4
18 18 18 17 16 16 15 14 13 11 10 9 7 6 4 3 3 2 2 2 2 3 3 4 4 5 5 5 6 6 6 6 6 6 5 5 4 4
17 17 16 16 15 15 14 13 12 11 10 9 7 5 3 3 2 2 2 2 3 3 3 4 4 4 5 5 5 5 6 6 6 6 5 5 5 4
17 16 16 15 15 14 13 13 12 11 10 8 6 3 2 2 2 2 2 2 3 3 3 4 4 4 5 5 5 6 6 6 6 6 5 5 5 5
16 16 15 15 15 14 14 13 12 11 9 7 5 3 2 2 2 2 2 2 3 3 3 4 4 4 5 5 5 6 6 5 5 6 6 5 5 5
16 16 16 15 15 15 14 13 12 11 9 7 5 4 3 2 2 2 2 2 2 3 3 4 4 5 5 5 6 6 5 5 5 6 6 5 5 5
16 16 16 16 16 15 15 14 12 11 9 8 6 4 3 2 2 2 2 2 2 3 3 4 4 5 5 5 6 6 6 5 6 6 6 5 5 6